Regional Weather Roundup
Issued by NWS Newport/Morehead, NC

Current Version | Previous Version | Graphics & Text | Print | Product List | Glossary Off
Versions: 1 2 3 4 5 6 7 8 9 10 11 12 13 14 15 16 17 18 19 20 21 22 23 24 25 26 27 28 29 30 31 32 33 34 35 36 37 38 39 40 41 42 43 44 45 46 47 48 49 50

000
ASUS42 KMHX 081525
RWRMHX
WEATHER ROUNDUP FOR EASTERN NORTH CAROLINA
NATIONAL WEATHER SERVICE NEWPORT/MOREHEAD CITY NC
1000 AM EST MON FEB 08 2016

NOTE: "FAIR" INDICATES FEW OR NO CLOUDS BELOW 12,000 FEET
WITH NO SIGNIFICANT WEATHER AND/OR OBSTRUCTIONS TO VISIBILITY

NCZ015>017-031-032-045>047-102-103-081600-
NORTH COAST

CITY           SKY/WX    TMP DP  RH WIND       PRES   REMARKS
EDENTON        SUNNY     43  30  58 NW9       29.81S
ELIZABETH CITY SUNNY     43  30  60 NW12      29.79S
KITTY HAWK     SUNNY     43  31  63 NW6       29.76S
MANTEO         SUNNY     42  32  67 NW14      29.79R

$$

NCZ045>047-081-094-103-104-081600-
CENTRAL COAST

CITY           SKY/WX    TMP DP  RH WIND       PRES   REMARKS
FRISCO         SUNNY     43  31  62 NW9       29.80R
SWANQUARTER      N/A     45 N/A N/A NW8       29.79S

$$

NCZ095-097-098-100-101-081600-
SOUTHERN COAST

CITY           SKY/WX    TMP DP  RH WIND       PRES   REMARKS
BEAUFORT       SUNNY     43  30  60 W10       29.84
CEDAR ISLAND     N/A     43 N/A N/A W12G17    29.85S
JACKSONVILLE   SUNNY     46  26  45 NW7       29.86S
PINEY ISLAND   SUNNY    N/A N/A N/A NW10      29.82
WILMINGTON     SUNNY     46  30  53 W3        29.88S


$$

NCZ011>013-027>030-043-044-078>080-089-090>093-098-081600-
COASTAL PLAIN

CITY           SKY/WX    TMP DP  RH WIND       PRES   REMARKS
AHOSKIE        SUNNY     42  27  54 CALM      29.83S
CLINTON        SUNNY     43  32  63 CALM      29.86F
ELIZABETHTOWN  SUNNY     46  31  55 S5        29.86F
GOLDSBORO      SUNNY     45  27  49 NW2       29.84S
GREENVILLE     SUNNY     43  27  52 CALM      29.86F
HAVELOCK       SUNNY     44  27  51 W8        29.85S
KENANSVILLE      N/A     45  28  51 CALM      29.86F
KINSTON        SUNNY     45  27  49 NW5       29.86S
NEW BERN       SUNNY     44  28  53 NW7       29.86R
RICHLANDS      SUNNY     45  25  45 W5        29.86F
ROCKY MOUNT    SUNNY     44  26  49 NW6       29.85S
WASHINGTON     SUNNY     42  27  54 CALM      29.83R
WHITEVILLE     SUNNY     46  30  54 S3        29.87F

$$

AMZ130-135-150-152-154-156-158-170-250-252-270-ANZ085-086-088-633-658-670-081600-
MARINE OBSERVATIONS

STATION/POSITION TIME  TEMP    WIND        PRES    WAVE   SWELL
                       AIR SEA DIR/SP/G            HT/PER HT/PER
                 (UTC) (F)     (DEG/KT/KT) (MB)    (FT/S) (FT/S)
CHESAPEAKE LIGHT 1500   41     340/ 20/ 21 1008.2
64 E VA BEACH    1450   45 53  340/ 25/ 29 1005.0   17/13  15/13
DUCK             1500   40     330/ 14/ 16 1007.6
2 E DUCK         1511      44                N/A    10/13   7/13
OREGON INLET     1500   41 45  310/ 14/ 16 1008.2
13E OREGON INLT  1500      47                N/A    16/13  13/13
HATTERAS CG      1500   41 50  310/ 16/ 18 1008.6
DIAMOND BUOY     1450   44 58  320/ 19/ 23 1008.9   16/16  15/16
CAPE LOOKOUT     NOT AVBL
BEAUFORT LAB     1500   42 46  300/  6/ 10 1009.5
30 SE NEW RVR IN 1508   48 60              1010.2
30 SE NEW RVR IN 1425      60                N/A     7/13   5/13
27 SE WRIGHTSVLE 1508   50     360/ 10/ 16 1009.7
5 SE WRIGHTSVLE  1408   44 52  310/  8/ 10 1011.7
225 S CAPE HAT   1450   58 69  300/ 23/ 31   N/A    21/15  18/15
41 SE CHARLESTON 1450   54 66  270/ 14/ 17 1012.5    5/15   5/15

$$



USA.gov is the U.S. government's official web portal to all federal, state and local government web resources and services.